KC8RP Weather Reports


Display with metric or nautical units.
time (UTC)temp
F
wind
direction
speed
MPH
gust
MPH
rain 1hr
in
rain 24hr
in
rain mn
in
humidity
%
barometer
mb
20200406023130 51 360 2.0 6.0 0.00 0.06 0.06 81 1018.0
20200406021834 51 360 3.0 6.0 0.00 0.06 0.06 82 1017.8
20200406020122 51 360 1.0 4.0 0.00 0.06 0.06 82 1017.9
20200406014615 51 360 1.0 6.0 0.00 0.06 0.06 82 1017.8
20200406013108 51 360 2.0 9.0 0.00 0.06 0.06 82 1017.5
20200406011642 51 360 2.0 6.0 0.00 0.06 0.06 82 1017.4
20200406010105 51 360 2.0 8.0 0.00 0.06 0.06 82 1017.4
20200406004558 51 360 3.0 8.0 0.00 0.06 0.06 83 1017.3
20200406001612 51 360 3.0 6.0 0.00 0.06 0.06 84 1017.3
20200406000111 52 360 3.0 6.0 0.00 0.06 0.06 83 1017.3
20200405234709 52 360 4.0 9.0 0.00 0.06 0.06 82 1017.2
20200405233045 52 360 1.0 9.0 0.00 0.06 0.06 81 1017.2
20200405231554 52 360 4.0 10.0 0.00 0.06 0.06 81 1017.3
20200405230058 53 360 4.0 11.0 0.00 0.06 0.06 80 1017.0
20200405224537 53 360 3.0 8.0 0.00 0.06 0.06 79 1016.9
20200405223043 54 360 3.0 9.0 0.00 0.06 0.06 79 1016.9
20200405221547 54 360 4.0 8.0 0.00 0.06 0.06 79 1016.7
20200405063153 52 338 3.0 9.0 0.00 0.00 0.00 78 1014.5
20200405061651 52 307 2.0 5.0 0.00 0.00 0.00 78 1014.5
20200405060137 52 346 3.0 5.0 0.00 0.00 0.00 78 1014.6
20200405054714 52 296 1.0 4.0 0.00 0.00 0.00 78 1014.5
20200405053124 53 11 3.0 5.0 0.00 0.00 0.00 77 1014.5
20200405051624 53 13 2.0 6.0 0.00 0.00 0.00 77 1014.4
20200405050104 53 5 2.0 6.0 0.00 0.00 0.00 76 1014.3
20200405044633 53 347 4.0 9.0 0.00 0.00 0.00 76 1014.4
20200405043056 54 349 3.0 8.0 0.00 0.00 0.00 75 1014.4
20200405041608 54 344 2.0 8.0 0.00 0.00 0.00 75 1014.5
20200405040118 54 344 5.0 11.0 0.00 0.00 0.00 75 1014.5
20200405034552 55 323 4.0 11.0 0.00 0.00 0.00 74 1014.6
20200405033137 55 344 4.0 10.0 0.00 0.00 0.00 74 1014.6
20200405031544 56 346 4.0 9.0 0.00 0.00 0.00 74 1014.5
20200405030103 56 340 4.0 8.0 0.00 0.00 0.00 74 1014.4
20200405024616 57 355 4.0 10.0 0.00 0.00 0.00 73 1014.4